Home > Weather > Hollabrunn > Past weeks

Flag for Austria Past Weather in Hollabrunn, Lower Austria, Austria — Yesterday and Last 2 Weeks

Now
64 °F

Mild.


Feels Like: 64 °F
Forecast: 58 / 85 °F
Wind: 1 mph from Northwest

Location: Retz

Current Time: Jul 1, 2016 at 2:51:57 AM

Latest Report: Jul 1, 2016 at 2:00 AM


Visibility: N/A

Pressure: 30.01 "Hg

Humidity: 90%

Dew Point: 61 °F

Location of HollabrunnLocation

Past Weather in Hollabrunn — Graph

°F

Hollabrunn Temperature Yesterday

Maximum temperature yesterday: 83 °F (at 2:00 PM)
Minimum temperature yesterday: 65 °F (at 6:00 AM)
Average temperature yesterday: 73 °F

High & Low Weather Summary for the Past Weeks

 TemperatureHumidityPressure
High89 °F (Jun 25, 3:00 PM)98% (Jun 20, 11:00 PM)30.27 "Hg (Jun 20, 11:00 PM)
Low55 °F (Jun 16, 7:00 AM)36% (Jun 18, 3:00 PM)29.44 "Hg (Jun 17, 4:00 AM)
Average69 °F69%29.99 "Hg
* Reported Jun 16 2:00 AM — Jul 1 1:00 AM, Hollabrunn, Weather by CustomWeather, © 2016

Note: Actual official high and low records may vary slightly from our data, if they occured in-between our weather recording intervals... More about our weather records

Advertising

Hollabrunn Weather History for the Previous 24 Hours

Scroll right to see more
 ConditionsComfort  
Time TempWeatherWind HumidityBarometerVisibility
1:00 AM
Fri, Jul 1
62 °FCool.1 mph94%30.01 "HgN/A
12:00 AM65 °FMild.1 mph95%30.00 "HgN/A
11:00 PM
Thu, Jun 30
66 °FMild.1 mph91%29.99 "HgN/A
10:00 PM66 °FFog.3 mph90%30.01 "HgN/A
9:00 PM70 °FFog.5 mph79%29.97 "HgN/A
8:00 PM74 °FOvercast.5 mph64%29.94 "Hg16 mi
7:00 PM76 °FMild.6 mph60%29.92 "HgN/A
6:00 PM78 °FWarm.6 mph53%29.91 "HgN/A
5:00 PM77 °FWarm.7 mph60%29.90 "HgN/A
4:00 PM80 °FWarm.6 mph61%29.89 "HgN/A
3:00 PM76 °FMild.7 mph68%29.90 "HgN/A
2:00 PM83 °FWarm.2 mph50%29.89 "HgN/A
1:00 PM81 °FWarm.2 mph57%29.90 "HgN/A
12:00 PM79 °FWarm.2 mph63%29.91 "HgN/A
11:00 AM78 °FWarm.1 mph63%29.91 "HgN/A
10:00 AM73 °FMild.1 mph73%29.93 "HgN/A
9:00 AM72 °FMild.2 mph73%29.92 "HgN/A
8:00 AM71 °FPassing clouds.2 mph75%29.93 "Hg16 mi
7:00 AM69 °FPassing clouds.2 mph76%29.93 "Hg12 mi
6:00 AM65 °FMild.3 mph85%29.93 "HgN/A
5:00 AM69 °FMild.1 mph73%29.92 "HgN/A
4:00 AM68 °FMild.3 mph77%29.92 "HgN/A
3:00 AM69 °FMild.5 mph74%29.91 "HgN/A
2:00 AM71 °FSprinkles. Overcast.1 mph68%29.93 "HgN/A
Weather by CustomWeather, © 2016

See weather overviewHow to use our weather pages